St. Paul Lake Elmo, MN

11:28 AM CST on November 22, 2019 (GMT -0600)
St. Paul Lake Elmo

Weather History for K21D - September, 2019

Change the Weather History Date:

Thursday, September 12, 2019

  Actual Average (WUND) Record (WUND)
Temperature  
Mean Temperature 60 °F -  
Max Temperature 64 °F - - (-1)
Min Temperature 55 °F - - (-1)
Degree Days  
Heating Degree Days 6    
Growing Degree Days 10 (Base 50)    
Moisture  
Dew Point 59 °F    
Average Humidity 97    
Maximum Humidity 100    
Minimum Humidity 94    
Precipitation  
Precipitation 1.50 in - - ()
Sea Level Pressure  
Sea Level Pressure 29.97 in    
Wind  
Wind Speed 11 mph (WSW)    
Max Wind Speed 24 mph    
Max Gust Speed 33 mph    
Visibility 9 miles    
Events Rain , Thunderstorm    
Averages and records for this station are not official NWS values.
T = Trace of Precipitation, MM = Missing Value Source: NWS Daily Summary

Daily Weather History Graph

Daily Weather History Graph

Search for Another Location

Airport or City:

Astronomy

Sep. 12, 2019 Rise Set
Actual Time 6:46 AM CDT 7:28 PM CDT
Civil Twilight 6:16 AM CDT 7:57 PM CDT
Nautical Twilight 5:41 AM CDT 8:33 PM CDT
Astronomical Twilight 5:04 AM CDT 9:09 PM CDT
Moon 7:18 PM CDT (9/12) 4:59 AM CDT (9/12)
Length of Visible Light 13h 41m
Length of Day
12h 42m
Waxing Gibbous, 98% of the Moon is Illuminated
Sep 12
Waxing Gibbous
Sep 13
Full
Sep 21
Last Quarter
Sep 28
New
Oct 5
First Quarter

Hourly Weather History & Observations

Time (CDT) Temp. Dew Point Humidity Pressure Visibility Wind Dir Wind Speed Gust Speed Precip Events Conditions
12:15 AM 55.4 °F 55.4 °F 100% 30.11 in 7.0 mi WSW 10.4 mph - N/A   Overcast
12:16 AM 55.4 °F 55.4 °F 100% 30.11 in 7.0 mi WSW 10.4 mph - N/A   Overcast
12:35 AM 55.4 °F 55.4 °F 100% 30.10 in 10.0 mi WSW 11.5 mph 17.3 mph N/A   Overcast
12:59 AM 55.4 °F 55.4 °F 100% 30.08 in 10.0 mi WSW 13.8 mph 18.4 mph N/A   Overcast
1:16 AM 55.4 °F 55.4 °F 100% 30.10 in 10.0 mi WSW 8.1 mph - N/A   Overcast
1:35 AM 57.2 °F 55.4 °F 94% 30.10 in 10.0 mi WSW 11.5 mph - N/A   Overcast
1:36 AM 57.2 °F 55.4 °F 94% 30.10 in 10.0 mi WSW 12.7 mph - N/A   Overcast
1:55 AM 57.2 °F 55.4 °F 94% 30.08 in 10.0 mi WSW 11.5 mph - N/A   Overcast
1:56 AM 57.2 °F 55.4 °F 94% 30.08 in 10.0 mi WSW 12.7 mph - N/A   Overcast
2:15 AM 57.2 °F 55.4 °F 94% 30.08 in 10.0 mi WSW 12.7 mph 19.6 mph N/A   Overcast
2:20 AM 57.2 °F 55.4 °F 94% 30.08 in 10.0 mi WSW 10.4 mph 19.6 mph N/A   Overcast
2:37 AM 57.2 °F 55.4 °F 94% 30.09 in 10.0 mi WSW 11.5 mph - N/A   Overcast
2:56 AM 57.2 °F 55.4 °F 94% 30.12 in 10.0 mi WSW 9.2 mph 17.3 mph N/A   Overcast
3:15 AM 57.2 °F 55.4 °F 94% 30.12 in 10.0 mi WSW 8.1 mph 17.3 mph N/A Thunderstorm Overcast
3:16 AM 57.2 °F 55.4 °F 94% 30.12 in 10.0 mi WSW 8.1 mph 17.3 mph N/A Thunderstorm Overcast
3:35 AM 57.2 °F 55.4 °F 94% 30.11 in 10.0 mi WSW 12.7 mph 19.6 mph N/A Rain , Thunderstorm Light Thunderstorms and Rain
3:36 AM 57.2 °F 55.4 °F 94% 30.11 in 10.0 mi WSW 11.5 mph 19.6 mph N/A Rain , Thunderstorm Light Thunderstorms and Rain
3:58 AM 57.2 °F 55.4 °F 94% 30.08 in 10.0 mi WSW 13.8 mph 17.3 mph 0.04 in Rain , Thunderstorm Rain
4:17 AM 57.2 °F 55.4 °F 94% 30.08 in 10.0 mi WSW 15.0 mph 19.6 mph 0.03 in Rain Light Rain
4:35 AM 57.2 °F 55.4 °F 94% 30.09 in 10.0 mi WSW 11.5 mph 17.3 mph 0.06 in Rain Light Rain
4:36 AM 57.2 °F 55.4 °F 94% 30.09 in 10.0 mi WSW 9.2 mph 17.3 mph 0.06 in Rain Light Rain
4:55 AM 55.4 °F 55.4 °F 100% 30.07 in 10.0 mi WSW 11.5 mph 21.9 mph 0.10 in Rain Rain
5:15 AM 55.4 °F 55.4 °F 100% 30.07 in 10.0 mi WSW 6.9 mph 19.6 mph 0.01 in Rain Light Rain
5:20 AM 55.4 °F 55.4 °F 100% 30.07 in 10.0 mi WSW 9.2 mph 18.4 mph 0.01 in Rain Light Rain
5:37 AM 55.4 °F 55.4 °F 100% 30.07 in 10.0 mi WSW 6.9 mph - 0.04 in Rain Rain
5:56 AM 55.4 °F 55.4 °F 100% 30.08 in 10.0 mi WSW 9.2 mph - 0.06 in Rain Rain
6:15 AM 55.4 °F 55.4 °F 100% 30.06 in 10.0 mi WSW 12.7 mph 16.1 mph 0.04 in Rain Light Rain
6:16 AM 55.4 °F 55.4 °F 100% 30.06 in 10.0 mi WSW 12.7 mph 16.1 mph 0.04 in Rain Light Rain
6:35 AM 55.4 °F 55.4 °F 100% 30.06 in 10.0 mi WSW 9.2 mph 19.6 mph 0.06 in Rain , Thunderstorm Light Thunderstorms and Rain
6:59 AM 55.4 °F 55.4 °F 100% 30.04 in 10.0 mi WSW 13.8 mph 18.4 mph 0.09 in Rain Light Rain
7:16 AM 55.4 °F 55.4 °F 100% 30.04 in 10.0 mi WSW 10.4 mph 17.3 mph 0.02 in Rain , Thunderstorm Light Thunderstorms and Rain
7:35 AM 55.4 °F 55.4 °F 100% 30.06 in 4.0 mi WSW 3.5 mph - 0.08 in Rain , Thunderstorm Light Thunderstorms and Rain
7:55 AM 55.4 °F 55.4 °F 100% 30.04 in 2.5 mi WSW 13.8 mph - 0.32 in Rain , Thunderstorm Heavy Thunderstorms and Rain
7:56 AM 55.4 °F 55.4 °F 100% 30.04 in 2.5 mi WSW 12.7 mph - 0.32 in Rain , Thunderstorm Heavy Thunderstorms and Rain
8:15 AM 55.4 °F 55.4 °F 100% 30.03 in 5.0 mi WSW 11.5 mph 17.3 mph 0.07 in Rain , Thunderstorm Rain
8:19 AM 55.4 °F 55.4 °F 100% 30.02 in 5.0 mi WSW 12.7 mph 20.7 mph 0.10 in Rain , Thunderstorm Rain
8:37 AM 57.2 °F 55.4 °F 94% 30.03 in 3.0 mi WSW 16.1 mph 20.7 mph 0.24 in Rain , Thunderstorm Heavy Thunderstorms and Rain
8:55 AM 57.2 °F 55.4 °F 94% 30.02 in 2.5 mi WSW 12.7 mph 19.6 mph 0.40 in Rain , Thunderstorm Thunderstorms and Rain
9:15 AM 55.4 °F 55.4 °F 100% 30.01 in 5.0 mi WSW 16.1 mph 20.7 mph 0.06 in Rain Rain
9:16 AM 55.4 °F 55.4 °F 100% 30.01 in 5.0 mi WSW 15.0 mph 20.7 mph 0.06 in Rain Rain
9:35 AM 55.4 °F 55.4 °F 100% 29.96 in 3.0 mi WSW 24.2 mph 32.2 mph 0.18 in Rain Rain
9:40 AM 55.4 °F 55.4 °F 100% 29.95 in 4.0 mi WSW 21.9 mph 32.2 mph 0.20 in Rain Rain
9:57 AM 55.4 °F 55.4 °F 100% 29.92 in 5.0 mi WSW 23.0 mph 33.4 mph 0.26 in Rain , Thunderstorm Rain
10:15 AM 57.2 °F 55.4 °F 94% 29.93 in 10.0 mi WSW 17.3 mph 32.2 mph 0.02 in Rain Light Rain
10:35 AM 57.2 °F 55.4 °F 94% 29.94 in 10.0 mi WSW 17.3 mph 24.2 mph 0.03 in Rain Light Rain
10:36 AM 57.2 °F 55.4 °F 94% 29.94 in 10.0 mi WSW 17.3 mph 24.2 mph 0.03 in Rain Light Rain
10:55 AM 59.0 °F 57.2 °F 94% 29.97 in 10.0 mi WSW 11.5 mph 19.6 mph 0.03 in   Mostly Cloudy
10:56 AM 59.0 °F 57.2 °F 94% 29.97 in 10.0 mi WSW 11.5 mph 19.6 mph 0.03 in   Mostly Cloudy
11:19 AM 59.0 °F 57.2 °F 94% 29.97 in 10.0 mi WSW 15.0 mph 19.6 mph N/A   Mostly Cloudy
11:36 AM 60.8 °F 59.0 °F 94% 29.97 in 10.0 mi WSW 15.0 mph 21.9 mph N/A   Overcast
11:55 AM 60.8 °F 59.0 °F 94% 29.97 in 10.0 mi WSW 16.1 mph 26.5 mph N/A   Overcast
11:56 AM 60.8 °F 59.0 °F 94% 29.97 in 10.0 mi WSW 12.7 mph 26.5 mph N/A   Overcast
12:15 PM 60.8 °F 59.0 °F 94% 29.98 in 10.0 mi WSW 12.7 mph 18.4 mph N/A   Overcast
12:16 PM 60.8 °F 59.0 °F 94% 29.98 in 10.0 mi WSW 11.5 mph 18.4 mph N/A   Overcast
12:39 PM 60.8 °F 59.0 °F 94% 29.98 in 10.0 mi WSW 15.0 mph 20.7 mph N/A   Overcast
12:56 PM 60.8 °F 59.0 °F 94% 29.97 in 10.0 mi WSW 12.7 mph 18.4 mph N/A   Overcast
1:16 PM 60.8 °F 59.0 °F 94% 29.96 in 10.0 mi WSW 12.7 mph 18.4 mph N/A   Overcast
1:35 PM 60.8 °F 59.0 °F 94% 29.96 in 10.0 mi WSW 12.7 mph 20.7 mph N/A   Overcast
1:36 PM 60.8 °F 59.0 °F 94% 29.95 in 10.0 mi WSW 12.7 mph 20.7 mph N/A   Overcast
1:55 PM 60.8 °F 59.0 °F 94% 29.94 in 10.0 mi WSW 11.5 mph - N/A   Overcast
1:59 PM 60.8 °F 59.0 °F 94% 29.94 in 10.0 mi WSW 12.7 mph 16.1 mph N/A   Overcast
2:17 PM 60.8 °F 60.8 °F 100% 29.94 in 10.0 mi WSW 9.2 mph 17.3 mph N/A   Overcast
2:36 PM 60.8 °F 60.8 °F 100% 29.93 in 10.0 mi WSW 9.2 mph - N/A Thunderstorm Overcast
2:55 PM 62.6 °F 60.8 °F 94% 29.91 in 7.0 mi WSW 11.5 mph 17.3 mph N/A Thunderstorm Overcast
2:56 PM 62.6 °F 60.8 °F 94% 29.91 in 7.0 mi WSW 9.2 mph 17.3 mph N/A Thunderstorm Overcast
3:15 PM 62.6 °F 60.8 °F 94% 29.90 in 7.0 mi WSW 10.4 mph 17.3 mph N/A   Overcast
3:16 PM 62.6 °F 60.8 °F 94% 29.90 in 7.0 mi WSW 10.4 mph 17.3 mph N/A   Overcast
3:39 PM 62.6 °F 60.8 °F 94% 29.88 in 7.0 mi WSW 13.8 mph - N/A   Light Drizzle
3:56 PM 62.6 °F 62.6 °F 100% 29.87 in 7.0 mi WSW 12.7 mph 20.7 mph N/A   Overcast
4:15 PM 62.6 °F 62.6 °F 100% 29.86 in 10.0 mi WSW 9.2 mph 17.3 mph N/A Thunderstorm Overcast
4:36 PM 62.6 °F 62.6 °F 100% 29.85 in 10.0 mi WSW 9.2 mph - N/A   Overcast
4:55 PM 62.6 °F 62.6 °F 100% 29.86 in 10.0 mi WSW 10.4 mph - N/A   Overcast
4:59 PM 62.6 °F 62.6 °F 100% 29.86 in 10.0 mi WSW 12.7 mph 16.1 mph N/A   Overcast
5:16 PM 62.6 °F 62.6 °F 100% 29.85 in 3.0 mi WSW 13.8 mph 21.9 mph N/A Thunderstorm Overcast
5:36 PM 62.6 °F 62.6 °F 100% 29.85 in 7.0 mi WSW 10.4 mph 16.1 mph N/A Thunderstorm Overcast
5:55 PM 62.6 °F 62.6 °F 100% 29.86 in 7.0 mi WSW 5.8 mph - N/A   Overcast
5:56 PM 62.6 °F 62.6 °F 100% 29.86 in 10.0 mi WSW 4.6 mph - N/A   Overcast
6:15 PM 62.6 °F 62.6 °F 100% 29.86 in 10.0 mi WSW 5.8 mph - N/A Thunderstorm Thunderstorm
6:19 PM 62.6 °F 62.6 °F 100% 29.86 in 10.0 mi WSW 6.9 mph - N/A Thunderstorm Overcast
6:37 PM 62.6 °F 62.6 °F 100% 29.86 in 10.0 mi WSW 6.9 mph - N/A   Drizzle
6:56 PM 62.6 °F 62.6 °F 100% 29.85 in 2.5 mi WSW 9.2 mph - 0.15 in   Overcast
7:15 PM 62.6 °F 62.6 °F 100% 29.84 in 10.0 mi WSW 9.2 mph - 0.04 in Rain Light Rain
7:16 PM 62.6 °F 62.6 °F 100% 29.84 in 10.0 mi WSW 8.1 mph - 0.04 in Rain Light Rain
7:35 PM 62.6 °F 62.6 °F 100% 29.84 in 10.0 mi WSW 4.6 mph - 0.05 in Thunderstorm Overcast
7:36 PM 62.6 °F 62.6 °F 100% 29.84 in 10.0 mi WSW 4.6 mph - 0.05 in Thunderstorm Overcast
7:59 PM 64.4 °F 62.6 °F 94% 29.84 in 10.0 mi Calm Calm - 0.05 in   Overcast
8:16 PM 64.4 °F 62.6 °F 94% 29.85 in 10.0 mi WSW 5.8 mph - N/A   Overcast
8:35 PM 64.4 °F 64.4 °F 100% 29.86 in 10.0 mi WSW 5.8 mph - N/A   Overcast
8:36 PM 64.4 °F 64.4 °F 100% 29.86 in 10.0 mi WSW 5.8 mph - N/A   Overcast
8:55 PM 64.4 °F 64.4 °F 100% 29.86 in 10.0 mi WSW 5.8 mph - N/A   Overcast
8:56 PM 64.4 °F 64.4 °F 100% 29.86 in 10.0 mi WSW 5.8 mph - N/A   Overcast
9:15 PM 64.4 °F 64.4 °F 100% 29.86 in 10.0 mi WSW 4.6 mph - N/A   Overcast
9:37 PM 64.4 °F 64.4 °F 100% 29.86 in 10.0 mi WSW 5.8 mph - N/A   Overcast
9:56 PM 64.4 °F 64.4 °F 100% 29.86 in 10.0 mi WSW 6.9 mph - N/A   Mostly Cloudy
10:15 PM 64.4 °F 64.4 °F 100% 29.86 in 10.0 mi WSW 5.8 mph - N/A   Scattered Clouds
10:16 PM 64.4 °F 64.4 °F 100% 29.86 in 10.0 mi WSW 4.6 mph - N/A   Scattered Clouds
10:35 PM 64.4 °F 64.4 °F 100% 29.86 in 10.0 mi WSW 6.9 mph - N/A   Scattered Clouds
11:16 PM 64.4 °F 64.4 °F 100% 29.85 in 10.0 mi WSW 8.1 mph - N/A   Overcast
11:35 PM 64.4 °F 64.4 °F 100% 29.84 in 10.0 mi WSW 6.9 mph - N/A   Overcast
11:55 PM 64.4 °F 64.4 °F 100% 29.84 in 10.0 mi WSW 9.2 mph - N/A   Overcast
11:56 PM 64.4 °F 64.4 °F 100% 29.84 in 10.0 mi WSW 9.2 mph - N/A   Overcast